When you browse on this site, cookies collect data to enhance your experience and personalize the content and advertising you see.
Visit our Privacy Policy to learn more. By continuing to use the site, you agree to this use of cookies and data.
  • în România
  • Lista ţărilor
  • Pe 7 zile
  • Temperatura apei
  • Meteo pe hartă
  • Widget-uri
  • user-avatar
    Intrare

    Meteo pe oră la Kendari

    Astăzi, 5 Aprilie, Duminică

    Timp Temperatura Precipitaţii Vânt Presiune Umiditate
    00:00 +25°C° 0.1 mm 3 m/s 746 mmHg 96%
    01:00 +25°C° 0.1 mm 3 m/s 746 mmHg 96%
    02:00 +25°C° 0 mm 2 m/s 745 mmHg 97%
    03:00 +25°C° 0 mm 2 m/s 745 mmHg 96%
    04:00 +25°C° 0 mm 2 m/s 745 mmHg 95%
    05:00 +24°C° 0 mm 1 m/s 745 mmHg 95%
    06:00 +26°C° 0 mm 1 m/s 745 mmHg 92%
    07:00 +27°C° 0 mm 1 m/s 746 mmHg 88%
    08:00 +28°C° 0 mm 1 m/s 746 mmHg 82%
    09:00 +31°C° 0 mm 1 m/s 746 mmHg 73%
    10:00 +33°C° 0 mm 1 m/s 746 mmHg 64%
    11:00 +35°C° 0 mm 1 m/s 746 mmHg 55%
    12:00 +34°C° 0.9 mm 1 m/s 745 mmHg 62%
    13:00 +33°C° 0.9 mm 1 m/s 745 mmHg 69%
    14:00 +32°C° 0 mm 1 m/s 744 mmHg 77%
    15:00 +31°C° 1.5 mm 1 m/s 744 mmHg 81%
    16:00 +30°C° 1.5 mm 1 m/s 744 mmHg 85%
    17:00 +29°C° 1.5 mm 1 m/s 744 mmHg 90%
    18:00 +28°C° 0.5 mm 1 m/s 745 mmHg 91%
    19:00 +25°C° 0.5 mm 0 m/s 745 mmHg 92%
    20:00 +24°C° 0.5 mm 0 m/s 746 mmHg 93%
    21:00 +26°C° 0.4 mm 1 m/s 746 mmHg 94%
    22:00 +26°C° 0.4 mm 1 m/s 746 mmHg 96%
    23:00 +26°C° 0.4 mm 1 m/s 746 mmHg 97%

    Mâine, 6 Aprilie, Luni

    Timp Temperatura Precipitaţii Vânt Presiune Umiditate
    00:00 +26°C° 0.1 mm 1 m/s 746 mmHg 97%
    01:00 +25°C° 0.1 mm 1 m/s 745 mmHg 97%
    02:00 +25°C° 0.1 mm 2 m/s 745 mmHg 97%
    03:00 +25°C° 0.7 mm 2 m/s 745 mmHg 97%
    04:00 +25°C° 0.7 mm 2 m/s 745 mmHg 96%
    05:00 +25°C° 0.7 mm 2 m/s 745 mmHg 96%
    06:00 +26°C° 0.5 mm 1 m/s 745 mmHg 93%
    07:00 +27°C° 0.5 mm 1 m/s 746 mmHg 90%
    08:00 +28°C° 0.5 mm 1 m/s 746 mmHg 88%
    09:00 +30°C° 0.4 mm 1 m/s 746 mmHg 81%
    10:00 +31°C° 0.4 mm 1 m/s 746 mmHg 75%
    11:00 +32°C° 0.4 mm 1 m/s 746 mmHg 69%
    12:00 +32°C° 0.6 mm 1 m/s 745 mmHg 70%
    13:00 +32°C° 0.6 mm 2 m/s 744 mmHg 72%
    14:00 +32°C° 0.6 mm 2 m/s 743 mmHg 73%
    15:00 +31°C° 1 mm 2 m/s 743 mmHg 79%
    16:00 +30°C° 1 mm 1 m/s 743 mmHg 85%
    17:00 +29°C° 1 mm 1 m/s 744 mmHg 91%
    18:00 +28°C° 0.7 mm 1 m/s 744 mmHg 92%
    19:00 +27°C° 0.7 mm 1 m/s 745 mmHg 93%
    20:00 +26°C° 0.7 mm 1 m/s 745 mmHg 94%
    21:00 +26°C° 0.4 mm 1 m/s 745 mmHg 94%
    22:00 +24°C° 0.4 mm 0 m/s 745 mmHg 94%
    23:00 +24°C° 0.4 mm 0 m/s 746 mmHg 95%

    Poimâine, 7 Aprilie, Marţi

    Timp Temperatura Precipitaţii Vânt Presiune Umiditate
    00:00 +23°C° 0 mm 0 m/s 745 mmHg 95%
    01:00 +25°C° 0 mm 1 m/s 745 mmHg 95%
    02:00 +25°C° 0 mm 1 m/s 744 mmHg 96%
    03:00 +25°C° 0.1 mm 1 m/s 744 mmHg 96%
    04:00 +25°C° 0.1 mm 1 m/s 744 mmHg 96%
    05:00 +25°C° 0.1 mm 1 m/s 744 mmHg 96%
    06:00 +26°C° 0.5 mm 1 m/s 745 mmHg 93%
    07:00 +27°C° 0.5 mm 1 m/s 746 mmHg 90%
    08:00 +28°C° 0.5 mm 1 m/s 746 mmHg 87%
    09:00 +30°C° 0.5 mm 1 m/s 746 mmHg 79%
    10:00 +32°C° 0.5 mm 1 m/s 746 mmHg 70%
    11:00 +34°C° 0.5 mm 1 m/s 745 mmHg 62%
    12:00 +33°C° 0.3 mm 1 m/s 745 mmHg 67%
    13:00 +32°C° 0.3 mm 1 m/s 744 mmHg 72%
    14:00 +31°C° 0.3 mm 2 m/s 743 mmHg 77%
    15:00 +30°C° 0.6 mm 2 m/s 743 mmHg 81%
    16:00 +30°C° 0.6 mm 1 m/s 743 mmHg 85%
    17:00 +29°C° 0.6 mm 1 m/s 743 mmHg 88%
    18:00 +28°C° 1.1 mm 1 m/s 744 mmHg 90%
    19:00 +27°C° 1.1 mm 1 m/s 744 mmHg 91%
    20:00 +24°C° 1.1 mm 0 m/s 745 mmHg 93%
    21:00 +24°C° 0.4 mm 0 m/s 745 mmHg 93%
    22:00 +24°C° 0.4 mm 0 m/s 745 mmHg 94%
    23:00 +24°C° 0.4 mm 0 m/s 745 mmHg 94%

    8 Aprilie, Miercuri

    Timp Temperatura Precipitaţii Vânt Presiune Umiditate
    00:00 +24°C° 0.5 mm 0 m/s 745 mmHg 95%
    01:00 +25°C° 0.5 mm 1 m/s 744 mmHg 95%
    02:00 +25°C° 0.5 mm 1 m/s 744 mmHg 96%
    03:00 +25°C° 0.8 mm 1 m/s 744 mmHg 96%
    04:00 +25°C° 0.8 mm 1 m/s 744 mmHg 96%
    05:00 +25°C° 0.8 mm 1 m/s 744 mmHg 96%
    06:00 +26°C° 0.4 mm 1 m/s 745 mmHg 93%
    07:00 +27°C° 0.4 mm 1 m/s 745 mmHg 91%
    08:00 +28°C° 0.4 mm 1 m/s 746 mmHg 88%
    09:00 +29°C° 0.5 mm 1 m/s 746 mmHg 83%
    10:00 +29°C° 0.5 mm 0 m/s 745 mmHg 77%
    11:00 +30°C° 0.5 mm 0 m/s 745 mmHg 72%
    12:00 +32°C° 0.8 mm 1 m/s 745 mmHg 74%
    13:00 +31°C° 0.8 mm 1 m/s 744 mmHg 76%
    14:00 +31°C° 0.8 mm 2 m/s 744 mmHg 77%
    15:00 +30°C° 0.9 mm 1 m/s 744 mmHg 82%
    16:00 +29°C° 0.9 mm 1 m/s 744 mmHg 86%
    17:00 +28°C° 0.9 mm 1 m/s 744 mmHg 90%
    18:00 +27°C° 1.5 mm 1 m/s 745 mmHg 92%
    19:00 +27°C° 1.5 mm 1 m/s 745 mmHg 93%
    20:00 +24°C° 1.5 mm 0 m/s 746 mmHg 94%
    21:00 +26°C° 1 mm 1 m/s 746 mmHg 95%
    22:00 +26°C° 1 mm 2 m/s 746 mmHg 96%
    23:00 +25°C° 1 mm 3 m/s 746 mmHg 97%

    9 Aprilie, Joi

    Timp Temperatura Precipitaţii Vânt Presiune Umiditate
    00:00 +25°C° 0.5 mm 3 m/s 746 mmHg 97%
    01:00 +25°C° 0.5 mm 3 m/s 746 mmHg 97%
    02:00 +25°C° 0.5 mm 2 m/s 745 mmHg 97%
    03:00 +25°C° 0.9 mm 2 m/s 745 mmHg 98%
    04:00 +24°C° 0.9 mm 2 m/s 745 mmHg 98%
    05:00 +24°C° 0.9 mm 2 m/s 745 mmHg 98%
    06:00 +24°C° 0.5 mm 2 m/s 746 mmHg 98%
    07:00 +25°C° 0.5 mm 1 m/s 746 mmHg 97%
    08:00 +25°C° 0.5 mm 1 m/s 747 mmHg 97%
    09:00 +26°C° 0 mm 1 m/s 747 mmHg 93%
    10:00 +27°C° 0 mm 1 m/s 746 mmHg 90%
    11:00 +28°C° 0 mm 1 m/s 746 mmHg 86%
    12:00 +28°C° 0 mm 1 m/s 745 mmHg 84%
    13:00 +28°C° 0 mm 1 m/s 745 mmHg 81%
    14:00 +29°C° 0 mm 1 m/s 744 mmHg 79%
    15:00 +29°C° 0 mm 2 m/s 744 mmHg 80%
    16:00 +28°C° 0 mm 2 m/s 744 mmHg 82%
    17:00 +28°C° 0 mm 3 m/s 744 mmHg 83%
    18:00 +27°C° 0 mm 2 m/s 745 mmHg 86%
    19:00 +26°C° 0 mm 2 m/s 745 mmHg 89%
    20:00 +26°C° 0 mm 2 m/s 746 mmHg 93%
    21:00 +26°C° 0 mm 2 m/s 746 mmHg 93%
    22:00 +25°C° 0 mm 2 m/s 746 mmHg 93%
    23:00 +25°C° 0 mm 2 m/s 746 mmHg 93%

    10 Aprilie, Vineri

    Timp Temperatura Precipitaţii Vânt Presiune Umiditate
    00:00 +25°C° 0 mm 1 m/s 746 mmHg 93%
    01:00 +25°C° 0 mm 1 m/s 746 mmHg 93%
    02:00 +25°C° 0 mm 1 m/s 745 mmHg 94%
    03:00 +25°C° 0 mm 1 m/s 745 mmHg 94%
    04:00 +25°C° 0 mm 1 m/s 745 mmHg 94%
    05:00 +25°C° 0 mm 1 m/s 745 mmHg 94%
    06:00 +26°C° 0 mm 1 m/s 746 mmHg 88%
    07:00 +28°C° 0 mm 1 m/s 746 mmHg 83%
    08:00 +29°C° 0 mm 1 m/s 747 mmHg 77%
    09:00 +30°C° 0.1 mm 1 m/s 747 mmHg 72%
    10:00 +31°C° 0.1 mm 2 m/s 747 mmHg 66%
    11:00 +34°C° 0.1 mm 2 m/s 746 mmHg 61%
    12:00 +32°C° 0.4 mm 2 m/s 746 mmHg 64%
    13:00 +32°C° 0.4 mm 2 m/s 745 mmHg 68%
    14:00 +31°C° 0.4 mm 2 m/s 744 mmHg 71%
    15:00 +30°C° 0.2 mm 2 m/s 744 mmHg 75%
    16:00 +29°C° 0.2 mm 2 m/s 744 mmHg 80%
    17:00 +28°C° 0.2 mm 2 m/s 745 mmHg 84%
    18:00 +27°C° 0.1 mm 2 m/s 745 mmHg 85%
    19:00 +27°C° 0.1 mm 1 m/s 746 mmHg 86%
    20:00 +27°C° 0.1 mm 1 m/s 746 mmHg 86%
    21:00 +27°C° 0.5 mm 1 m/s 746 mmHg 89%
    22:00 +26°C° 0.5 mm 1 m/s 746 mmHg 91%
    23:00 +26°C° 0.5 mm 1 m/s 747 mmHg 94%
    Arată mai mult